Location: Raitis
(47.2167°N, 11.3833°E)
Time: 16:48:25
(UTC+00:00)

Gbstr 26 Del rocket - Pass Details

Date: 03 March 2021
Orbit: 492 x 1263 km, 51.8° (Epoch: 20 April)

Event Time Altitude Azimuth Distance (km) Brightness Sun altitude
Rises 18:07:54 0° 270° (W) 2,765 8.6 -11.8°
Reaches altitude 10° 18:10:01 10° 276° (W) 1,947 7.2 -12.2°
Maximum altitude 18:14:21 52° 354° (N) 852 3.8 -12.9°
Enters shadow 18:18:30 16° 67° (ENE) 1,948 5.1 -13.6°
